Location: Newark
(35.5300°N, 14.3000°E)
Time: 08:09:43
(UTC+00:00)

Hubble Space Telescope - Visible Passes

Search period start: 26 March 2019 00:00
Search period end: 05 April 2019 00:00
Orbit: 537 x 540 km, 28.5° (Epoch: 25 March)

Date Brightness Start Highest point End Pass type
(mag) Time Alt. Az. Time Alt. Az. Time Alt. Az.
26 Mar 2.2 18:17:42 10° SW 18:21:01 23° SSE 18:22:42 18° SE visible
27 Mar 2.1 18:07:00 10° SW 18:10:28 26° S 18:12:57 15° ESE visible
27 Mar 3.4 19:47:36 10° WSW 19:48:18 14° WSW 19:48:18 14° WSW visible
28 Mar 2.0 17:56:21 10° SW 17:59:55 28° S 18:03:09 12° ESE visible
28 Mar 3.0 19:37:06 10° WSW 19:38:30 18° SW 19:38:30 18° SW visible
29 Mar 2.0 17:45:45 10° WSW 17:49:21 29° S 17:52:59 10° ESE visible
29 Mar 2.7 19:26:39 10° WSW 19:28:40 21° SW 19:28:40 21° SW visible
30 Mar 2.5 19:16:12 10° WSW 19:18:49 23° SSW 19:18:49 23° SSW visible
31 Mar 2.4 19:05:48 10° WSW 19:08:57 22° SSW 19:08:57 22° SSW visible
01 Apr 2.6 18:55:28 10° WSW 18:58:26 19° SSW 18:59:07 18° S visible
02 Apr 2.8 18:45:13 10° WSW 18:47:51 16° SSW 18:49:17 14° S visible
03 Apr 3.1 18:35:06 10° SW 18:37:15 14° SSW 18:39:24 10° SSE visible
04 Apr 3.3 18:25:19 10° SW 18:26:39 11° SSW 18:27:59 10° S visible
